Regional Weather Roundup
Issued by NWS

Home | Current Version | Previous Version | Graphics & Text | Print | Product List | Glossary On
Versions: 1 2 3 4 5 6 7 8 9 10 11 12 13 14 15 16 17 18 19 20 21 22 23 24 25 26 27 28
000
ASUS45 KBOU 231707
RWRCO

WEATHER ROUNDUP FOR COLORADO
NATIONAL WEATHER SERVICE DENVER/BOULDER CO
1100 AM MDT WED AUG 23 2017

NOTE: "FAIR" INDICATES FEW OR NO CLOUDS BELOW 12000 FEET WITH NO
SIGNIFICANT WEATHER AND/OR OBSTRUCTIONS TO VISIBILITY.

COZ001>005-013-030-031-231800-
...NORTHWEST COLORADO...

CITY           SKY/WX    TMP DP  RH WIND       PRES   REMARKS
CRAIG          FAIR      74  44  34 E6        30.31F
HAYDEN         FAIR      71  41  33 E6        30.35F
MEEKER         FAIR      75  43  31 CALM      30.31F
RABBIT EARS PA CLOUDY    54  39  58 W9        30.60F
STEAMBOAT SPGS CLOUDY    64  43  46 CALM      30.36S
WALDEN         PTSUNNY   64  37  36 CALM      30.43F
$$

COZ006>008-011-231800-
...WEST CENTRAL VALLEYS...

CITY           SKY/WX    TMP DP  RH WIND       PRES   REMARKS
GRAND JUNCTION FAIR      79  48  33 S6        30.22F
MONTROSE       FAIR      74  46  36 CALM      30.31F
EAGLE          FAIR      73  42  32 CALM      30.35F
RIFLE          FAIR      75  46  35 CALM      30.26F
DELTA          FAIR      78  44  30 CALM      30.27F
NUCLA          FAIR      75  43  31 N6        30.34F
$$

COZ017>023-064>068-231800-
...SOUTHWEST COLORADO...

CITY           SKY/WX    TMP DP  RH WIND       PRES   REMARKS
DURANGO        FAIR      73  47  39 MISG      30.36F
CORTEZ         FAIR      78  52  40 S5        30.30F
PAGOSA SPRINGS FAIR      69  44  41 CALM      30.44S
TELLURIDE      FAIR      67  37  32 W7        30.54F
WOLF CREEK PAS FAIR      52  32  46 CALM      30.75S
$$

COZ009-010-012-014-032>034-037-058>063-231800-
...CENTRAL COLORADO...

CITY           SKY/WX    TMP DP  RH WIND       PRES   REMARKS
ASPEN          FAIR      74  40  29 N9        30.39F
BUENA VISTA    FAIR      68  40  35 S5        30.40F
COPPER MTN     PTSUNNY   57  36  44 NW5       30.69S
BERTHOUD PASS  FAIR      50  45  81 N3        30.72F
COTTONWOOD PAS FAIR      70  36  28 CALM      30.54S
GUNNISON       FAIR      62  44  51 SW6       30.44F
KREMMLING      FAIR      68  43  40 CALM      30.41F
LEADVILLE      FAIR      64  35  34 NW8       30.52F
MONARCH PASS   FAIR      50  39  66 W17       30.79S
SALIDA         FAIR      71  46  40 NE5       30.44F
SUNLIGHT       PTSUNNY   55  37  50 CALM      30.65S
WILKERSON PASS FAIR      59  36  41 E6        30.67R
$$

COZ069>075-231800-
...SAN LUIS VALLEY/SANGRE DE CRISTO MOUNTAINS...

CITY           SKY/WX    TMP DP  RH WIND       PRES   REMARKS
ALAMOSA        FAIR      63  50  62 VRB3      30.42F
DEL NORTE      FAIR      63  47  55 S3        30.45F
LA VETA PASS   NOT AVBL
SAGUACHE         N/A    N/A N/A N/A MISG        N/A
$$

COZ035-036-038>040-231800-
...NORTHERN COLORADO FRONT RANGE...

CITY           SKY/WX    TMP DP  RH WIND       PRES   REMARKS
DENVER INTL AP FAIR      81  45  28 NE12      30.19F
DMNS CITY PARK   N/A     80  44  27 NE9       30.19F
AURORA         MOSUNNY   80  47  31 N8        30.22F
FRONT RANGE AP MOSUNNY   81  48  32 NE10      30.21F
ERIE MUNI ARPT FAIR      83  42  23 E6        30.23S
BOULDER MUN AP FAIR      75  50  41 CALM      30.19F
CENTENNIAL     FAIR      80  41  24 N5        30.23F
BROOMFIELD     MOSUNNY   79  50  36 SE5       30.22F
FORT COLLINS   FAIR      79  52  38 S7        30.17F
LONGMONT       FAIR      83  49  31 CALM      30.19F
$$

COZ041-046-047-076>085-087-088-231800-
...PIKES PEAK/PALMER DIVIDE AND SOUTHERN FOOTHILLS...

CITY           SKY/WX    TMP DP  RH WIND       PRES   REMARKS
COLO. SPRINGS  FAIR      72  55  55 CALM      30.28F
A. F. ACADEMY  FAIR      73  49  42 CALM      30.29S
SCHRIEVER AFB  FAIR      71  51  49 S7        30.28F
CHEYENNE MTN   FAIR      68  56  67 SE5       30.27S
ELLICOTT       FAIR     N/A N/A N/A W9        30.26F
FALCON         FAIR      73  51  45 SW3       30.33S
FORT CARSON    FAIR      70  55  57 CALM      30.25F
LIMON          FAIR      73  58  59 S15       30.23F
MONUMENT HILL  FAIR      73  43  33 NE9       30.33S
CANON CITY     SUNNY     79  52  38 E3        30.22S
WALSENBURG     FAIR      84  45  24 W13       30.25F
TRINIDAD       FAIR      76  49  38 VRB5      30.25F
$$

COZ042>045-048>051-090-091-231800-
...NORTHEAST COLORADO...

CITY           SKY/WX    TMP DP  RH WIND       PRES   REMARKS
GREELEY ARPT   FAIR      76  58  53 CALM      30.16F
AKRON          FAIR      79  55  43 SW10      30.16F
BURLINGTON     CLOUDY    74  61  63 S21G30    30.20F
WRAY           CLOUDY    75  59  57 S15G21    30.16F
YUMA           FAIR      73  50  43 S17G23    30.15F
STERLING       FAIR      81  61  50 S5        30.10F
HOLYOKE        FAIR      79  63  57 S13       30.15F
FORT MORGAN    FAIR      78  51  38 SE3       30.15S
$$

COZ086-089-092>099-231800-
...SOUTHEAST COLORADO...

CITY           SKY/WX    TMP DP  RH WIND       PRES   REMARKS
PUEBLO         FAIR      76  52  43 CALM      30.18F
LA JUNTA       FAIR      81  59  47 S10       30.17F
LAMAR          NOT AVBL
SPRINGFIELD      N/A     70  64  81 S16       30.24S
$$




USA.gov is the U.S. government's official web portal to all federal, state and local government web resources and services.